User: anonymous   Login
Location: Gesvres
(49.0440°N, 2.8518°E)
Time: 00:01:06
(UTC+00:00)
Language:

Cosmos 1536 Rocket - Orbit

View from above orbital plane
View from above orbital plane
View from above satellite
View from above satellite

Ground track
Ground track

The orbit data is extracted from the following two-line orbital elements,

1 14700U 84013B   24176.41056082  .00000630  00000-0  71761-4 0  9999
2 14700  82.5369 280.1984 0020134 147.2434 281.5962 14.84430431160062
Epoch (UTC): 24 June 2024 09:51:12
Eccentricity: 0.0020134
inclination: 82.5369°
perigee height: 601 km
apogee height: 629 km
right ascension of ascending node: 280.1984°
argument of perigee: 147.2434°
revolutions per day: 14.84430431
mean anomaly at epoch: 281.5962°
orbit number at epoch: 16006

The dashed part of the orbit path shows where the satellite is in the earth's shadow,  

DLR